User: anonymous   Login
Location: Unspecified
(0.0000°N, 0.0000°E)
Time: 19:39:49
(UTC+00:00)
Language:

COSMOS 2390 - Orbit

View from above orbital plane
View from above orbital plane
View from above satellite
View from above satellite

Ground track
Ground track

The orbit data is extracted from the following two-line orbital elements,

1 27464U 02036A   21025.69434080  .00000031  00000-0  15046-3 0  9991
2 27464  82.4867 135.7564 0024469 243.0227 116.8360 12.44575481842949
Epoch (UTC): 25 January 2021 16:39:51
Eccentricity: 0.0024469
inclination: 82.4867°
perigee height: 1468 km
apogee height: 1506 km
right ascension of ascending node: 135.7564°
argument of perigee: 243.0227°
revolutions per day: 12.44575481
mean anomaly at epoch: 116.8360°
orbit number at epoch: 84294

The dashed part of the orbit path shows where the satellite is in the earth's shadow,  

DLR